Location: Lake Almanor
(40.2485°N, 121.1442°W)
Time: 22:38:41
(UTC-08:00)

STARLINK-1072 - Pass Details

Date: 28 January 2020
Orbit: 348 x 351 km, 53.0° (Epoch: 23 February)

Event Time Altitude Azimuth Distance (km) Brightness Sun altitude
Rises 18:31:00 0° 319° (NW) 2,167 7.1 -14.1°
Reaches altitude 10° 18:33:35 10° 344° (NNW) 1,321 5.6 -14.6°
Enters shadow 18:35:05 15° 14° (NNE) 1,065 4.8 -14.8°
